User: anonymous   Login
Location: Hysolar-Haus
(48.7436°N, 9.0965°E)
Time: 10:36:12
(UTC+00:00)
Language:

deb Explorer IX - Orbit

View from above orbital plane
View from above orbital plane
View from above satellite
View from above satellite

Ground track
Ground track

The orbit data is extracted from the following two-line orbital elements,

1    85U 61004C   19316.60989885 +.00001085 +00000-0 +25766-3 0  9990
2    85 038.7711 051.6284 0387892 128.1897 235.4448 14.19935465900119
Epoch (UTC): 12 November 2019 14:38:15
Eccentricity: 0.0387892
inclination: 38.7711°
perigee height: 546 km
apogee height: 1105 km
right ascension of ascending node: 51.6284°
argument of perigee: 128.1897°
revolutions per day: 14.19935465
mean anomaly at epoch: 235.4448°
orbit number at epoch: 90011

The dashed part of the orbit path shows where the satellite is in the earth's shadow,  

DLR